Regional Weather Roundup
Issued by NWS

Home | Current Version | Previous Version | Text Only | Print | Product List | Glossary Off
Versions: 1 2 3 4 5 6 7 8 9 10 11 12 13 14 15 16 17 18 19 20 21 22 23 24 25 26 27 28 29 30 31 32 33 34 35 36 37 38 39 40 41 42 43 44 45 46 47 48 49 50

000
ASUS43 KBIS 140110
RWRND

NORTH DAKOTA REGIONAL WEATHER ROUNDUP
NATIONAL WEATHER SERVICE BISMARCK ND
800 PM CDT SUN JUL 13 2014

NOTE: "FAIR" INDICATES FEW OR NO CLOUDS BELOW 12,000 FEET WITH NO
SIGNIFICANT WEATHER AND/OR OBSTRUCTIONS TO VISIBILITY.


NDZ001>003-009>011-017-140200-
NORTHWEST NORTH DAKOTA

CITY           SKY/WX    TMP DP  RH WIND       PRES   REMARKS
WILLISTON      SUNNY     73  37  27 N20       30.12R
MINOT          MOSUNNY   68  45  43 NW21G28   30.05R
MINOT AFB      PTSUNNY   67  47  48 N15       30.05R
$$

NDZ018>021-031>035-040>046-140200-
SOUTHWEST NORTH DAKOTA

CITY           SKY/WX    TMP DP  RH WIND       PRES   REMARKS
BISMARCK       MOSUNNY   72  41  32 N16G23    30.04S
DICKINSON      SUNNY     71  40  32 N15       30.09S
GARRISON         N/A     68  46  45 N15G26    30.06R
HETTINGER ARPT SUNNY     72  41  32 N13       30.12R
$$

NDZ004>008-012>016-024-026-027-054-140200-
NORTHEAST NORTH DAKOTA

CITY           SKY/WX    TMP DP  RH WIND       PRES   REMARKS
GRAND FORKS    CLOUDY    64  47  53 N10       29.93R
GRND FRKS AFB  PTSUNNY   64  47  53 N14       29.95R
DEVILS LAKE    CLOUDY    63  45  51 N21G26    29.98R
$$

NDZ022-023-025-028>030-036>039-047>053-140200-
SOUTHEAST NORTH DAKOTA

CITY           SKY/WX    TMP DP  RH WIND       PRES   REMARKS
FARGO          CLOUDY    68  47  46 NW16      29.93R
JAMESTOWN      PTSUNNY   68  46  45 N16G24    29.98R
$$



USA.gov is the U.S. government's official web portal to all federal, state and local government web resources and services.